SHT2V EGCC-EGLL

Flight info

Callsign SHT2V
Flight time N/A
Altitude 19000
Route SANBA N859 HON
Aircraft A319/M-SDE3FGHIRWY/LB1

Departure

Time 2026-05-04 17:03
Airport Manchester Airport (EGCC)

Arrival

Time N/A
Airport London Heathrow Airport (EGLL)
Time Latitude Longitude Altitude Speed Heading
2026-05-04 16:49 53.35915 -2.27089 247 ft 0 kts 54°
2026-05-04 16:54 53.35911 -2.27099 246 ft 3 kts 55°
2026-05-04 16:55 53.35879 -2.27217 245 ft 3 kts 128°
2026-05-04 16:55 53.35888 -2.27227 245 ft 0 kts 170°
2026-05-04 16:59 53.35865 -2.27220 245 ft 7 kts 169°
2026-05-04 17:00 53.35704 -2.27195 244 ft 0 kts 154°
2026-05-04 17:00 53.35664 -2.27139 244 ft 12 kts 141°
2026-05-04 17:01 53.35486 -2.26899 244 ft 15 kts 147°
2026-05-04 17:01 53.35315 -2.27153 240 ft 11 kts 232°
2026-05-04 17:02 53.35124 -2.27259 239 ft 18 kts 192°
2026-05-04 17:02 53.34962 -2.27423 237 ft 25 kts 231°
2026-05-04 17:03 53.34716 -2.27926 230 ft 86 kts 231°
2026-05-04 17:03 53.34210 -2.28976 222 ft 141 kts 231°
2026-05-04 17:03 53.32973 -2.31624 1424 ft 152 kts 233°
2026-05-04 17:04 53.31893 -2.35218 2010 ft 201 kts 278°
2026-05-04 17:04 53.33226 -2.39795 2858 ft 247 kts 285°
2026-05-04 17:05 53.32106 -2.45338 4648 ft 274 kts 220°
2026-05-04 17:05 53.28490 -2.46307 6764 ft 279 kts 157°
2026-05-04 17:06 53.25652 -2.43680 8413 ft 283 kts 151°
2026-05-04 17:06 53.23903 -2.42103 9380 ft 288 kts 153°
2026-05-04 17:07 53.20217 -2.38891 10601 ft 319 kts 154°
2026-05-04 17:07 53.18880 -2.37737 10790 ft 334 kts 154°
2026-05-04 17:07 53.16046 -2.35278 11534 ft 349 kts 153°
2026-05-04 17:07 53.13878 -2.33383 12302 ft 353 kts 153°
2026-05-04 17:08 53.11695 -2.31472 13089 ft 357 kts 153°
2026-05-04 17:08 53.07261 -2.27597 14562 ft 363 kts 153°
2026-05-04 17:08 53.05009 -2.25634 15262 ft 366 kts 154°
2026-05-04 17:09 53.02747 -2.23670 15967 ft 369 kts 154°
2026-05-04 17:09 53.00465 -2.21690 16676 ft 371 kts 154°
2026-05-04 17:09 52.98170 -2.19699 17380 ft 374 kts 154°
2026-05-04 17:10 52.93517 -2.15673 18726 ft 380 kts 154°
2026-05-04 17:10 52.86390 -2.09510 19057 ft 398 kts 154°
2026-05-04 17:11 52.83927 -2.07385 19056 ft 400 kts 154°
2026-05-04 17:11 52.81461 -2.05261 19058 ft 401 kts 154°
2026-05-04 17:11 52.76513 -2.01008 19059 ft 401 kts 154°
2026-05-04 17:12 52.74040 -1.98894 19058 ft 400 kts 154°
2026-05-04 17:12 52.69090 -1.94672 19056 ft 400 kts 154°
2026-05-04 17:13 52.61681 -1.88346 19051 ft 399 kts 154°
2026-05-04 17:14 52.54267 -1.82048 19050 ft 399 kts 154°
2026-05-04 17:14 52.51800 -1.79958 19050 ft 399 kts 154°
2026-05-04 17:14 52.46867 -1.75792 19051 ft 399 kts 154°
2026-05-04 17:15 52.44400 -1.73710 19048 ft 399 kts 154°
2026-05-04 17:15 52.39466 -1.69559 19052 ft 398 kts 155°
2026-05-04 17:16 52.34741 -1.65025 18720 ft 390 kts 144°
2026-05-04 17:16 52.28614 -1.56411 17967 ft 385 kts 141°
2026-05-04 17:17 52.26613 -1.53587 17692 ft 384 kts 141°
2026-05-04 17:17 52.20576 -1.45096 16893 ft 380 kts 141°
2026-05-04 17:18 52.18581 -1.42309 16632 ft 379 kts 141°